Content
SEND FEEDBACK

Daily
Averages
Monthly
Summary
Canada

VANCOUVER - UNIVERSITY, BRITISH COLUMBIA


Home > North America > Canada > British Columbia
Elevation: 249 feet     Latitude: 49 15N     Longitude: 123 15W

WEATHER
 
SELECT A DAY
Number of Records: 194,665;   Date Range: 1/1/95 - 8/19/14
 
SHARE

PRINT THIS DATA

[ ← Previous Day ]
WEATHER ALMANAC - OCTOBER 22, 2013
[ Next Day → ]
[ °C ]   °F
Weather ElementAverageHighLow
Temperature47.2 °F48.2 °F (11:00 am)44.6 °F (2:00 am)
Dewpoint46.8 °F48.2 °F (12:00 pm)44.6 °F (2:00 am)
Humidity98.7 %100 % (1:00 am)93 % (4:00 am)
Barometer30.11 in30.16 in (1:00 am)30.06 in (5:34 pm)
Wind Speed3.2 mph6.9 mph (2:37 pm)
Weather ElementAverage
Visibility0.3 mi
Wind DirectionS (182.7 °)

Weather ElementTotal
Precipitation---
Heating Degree Days18.6 (Base 65)
Averaged from 43 records on October 22, 2013
WEATHER CONDITIONS BREAKOUT
WIND DIRECTION BREAKOUT
WEATHER BY HOUR - OCTOBER 22, 2013
[ °C ]   °F
Local TimeTemperatureDewpointHumidityBarometerVisibilityWind DirectionWind SpeedGust SpeedPrecipitationEventsConditions
1:00 AM46.4 °F46.4 °F100 %30.16 in0.2 miNNW (340°)3.5 mphFogFog
2:00 AM44.6 °F44.6 °F100 %30.16 in0.2 miNNW (340°)2.3 mphFogFog
3:00 AM46.4 °F46.4 °F100 %30.16 in0.2 miNNW (330°)2.3 mphFogFog
4:00 AM46.4 °F44.6 °F93 %30.15 in0.2 miCalmFogFog
5:00 AM46.4 °F46.4 °F100 %30.14 in0.2 miCalmFogFog
5:00 AM46.0 °F46.0 °F98 %30.15 in0.0 miCalmFogHeavy Fog
6:00 AM46.4 °F46.4 °F100 %30.15 in0.2 miNNE (20°)2.3 mphFogFog
7:00 AM44.6 °F44.6 °F100 %30.15 in0.2 miNorthFogFog
8:00 AM46.4 °F44.6 °F93 %30.14 in0.2 miNNW (340°)2.3 mphFogFog
9:00 AM46.4 °F46.4 °F100 %30.15 in0.2 miNNW (340°)2.3 mphFogFog
10:00 AM46.4 °F46.4 °F100 %30.15 in0.2 miNW (320°)4.6 mphFogFog
11:00 AM47.0 °F47.0 °F100 %30.14 in0.0 miCalmFogHeavy Fog
11:00 AM48.2 °F46.4 °F93 %30.14 in0.4 miNorth
11:10 AM46.4 °F46.4 °F100 %30.14 in0.5 miWest (270°)2.3 mphFogFog
11:49 AM48.2 °F46.4 °F93 %30.13 in0.8 miCalmOvercast
12:00 PM48.2 °F48.2 °F100 %30.13 in0.5 miWest (270°)5.8 mphFogFog
12:12 PM48.2 °F46.4 °F93 %30.13 in0.4 miWest (280°)4.6 mphFogFog
1:00 PM48.2 °F48.2 °F100 %30.12 in0.5 miNorthFogFog
1:41 PM48.2 °F48.2 °F100 %30.11 in0.4 miWest (260°)5.8 mphFogFog
1:52 PM48.2 °F48.2 °F100 %30.11 in0.2 miNorthFogFog
2:00 PM48.2 °F48.2 °F100 %30.11 in0.4 miWest (260°)4.6 mphFogFog
2:16 PM48.2 °F48.2 °F100 %30.11 in0.8 miWNW (290°)5.8 mphOvercast
2:34 PM48.2 °F48.2 °F100 %30.10 in1.0 miNorthOvercast
2:37 PM48.2 °F48.2 °F100 %30.10 in0.8 miWNW (300°)6.9 mphOvercast
2:40 PM48.2 °F48.2 °F100 %30.10 in0.6 miNorthFogFog
2:43 PM48.2 °F48.2 °F100 %30.10 in0.4 miNorthFogFog
3:00 PM48.2 °F48.2 °F100 %30.10 in0.4 miNorthFogFog
3:16 PM48.2 °F48.2 °F100 %30.10 in0.5 miWest (280°)6.9 mphFogFog
3:40 PM48.2 °F48.2 °F100 %30.09 in0.4 miWNW (300°)5.8 mphFogFog
4:00 PM48.2 °F48.2 °F100 %30.09 in0.4 miWest (280°)5.8 mphFogFog
5:00 PM48.0 °F47.0 °F97 %30.08 in0.0 miWNW (290°)4.6 mphFogHeavy Fog
5:00 PM48.2 °F48.2 °F100 %30.07 in0.4 miNW (310°)4.6 mphFogFog
5:17 PM48.2 °F48.2 °F100 %30.07 in0.1 miNW (320°)3.5 mphFogFog
5:34 PM48.2 °F46.4 °F93 %30.06 in0.2 miNW (310°)3.5 mphFogFog
5:43 PM46.4 °F46.4 °F100 %30.06 in0.1 miWNW (290°)4.6 mphFogFog
5:55 PM46.4 °F46.4 °F100 %30.06 in0.0 miWSW (250°)3.5 mphFogFog
6:00 PM46.4 °F46.4 °F100 %30.06 in0.1 miNorthFogFog
6:04 PM46.4 °F46.4 °F100 %30.06 in0.0 miWest (280°)2.3 mphFogFog
7:00 PM46.4 °F46.4 °F100 %30.06 in0.0 miNW (310°)4.6 mphFogFog
8:00 PM46.4 °F46.4 °F100 %30.06 in0.0 miCalmFogFog
9:00 PM46.4 °F46.4 °F100 %30.06 in0.0 miNW (310°)2.3 mphFogFog
10:00 PM46.4 °F44.6 °F93 %30.07 in0.0 miCalmFogFog
11:00 PM44.6 °F44.6 °F100 %30.07 in0.0 miCalmFogFog
Hourly data recorded from CYVR, located miles away from Vancouver - University, British Columbia







STORIES FROM OUR PARTNERS